Regional Weather Roundup
Issued by NWS Albany, NY

Home | Current Version | Previous Version | Text Only | Print | Product List | Glossary On
Versions: 1 2 3 4 5 6 7 8 9 10 11 12 13 14 15 16 17 18 19 20 21 22 23 24 25 26 27 28 29 30 31 32 33 34 35 36 37 38 39 40 41 42 43 44 45 46 47 48 49 50
000
ASUS41 KALY 270710
RWRALY

NEW YORK STATE HOURLY WEATHER ROUNDUP
NATIONAL WEATHER SERVICE ALBANY NY
300 AM EDT MON APR 27 2015

NOTE: "FAIR" INDICATES FEW OR NO CLOUDS BELOW 12,000 FEET WITH NO
SIGNIFICANT WEATHER AND/OR NO OBSTRUCTIONS TO VISIBILITY.

NYZ032-033-038>043-046>054-057>066-NYZ062>081-270800-
EAST


CITY           SKY/WX    TMP DP  RH WIND       PRES   REMARKS
ALBANY         CLOUDY    45  33  63 W5        29.69S
GLENS FALLS    CLOUDY    47  33  58 NW6       29.67S
POUGHKEEPSIE   CLOUDY    47  34  60 CALM      29.67S
NEWBURGH       MOCLDY    45  34  65 NW5       29.68
MONTGOMERY     CLOUDY    47  31  53 NW8       29.67S
WHITE PLAINS   MOCLDY    48  32  53 NW8       29.65F
ISLIP          CLOUDY    49  31  49 NW6       29.64F
NEW YORK CITY  MOCLDY    50  31  48 NW10      29.67F
CENTRAL PARK   MOCLDY    50  29  44 NW5       29.70F
$$

NYZ005>009-017-018-044>046-055-056-270800-
CENTRAL


CITY           SKY/WX    TMP DP  RH WIND       PRES   REMARKS
FULTON         CLOUDY    41  35  79 NW5       29.73S
SYRACUSE       DRIZZLE   43  35  73 W5        29.72F
ROME           CLOUDY    40  33  76 N3        29.73F
ELMIRA         CLOUDY    44  34  67 W3        29.74F
BINGHAMTON     CLOUDY    38  31  76 W6        29.70F WCI  33
MONTICELLO     CLOUDY    39  30  70 NW9       29.68F WCI  33
$$

NYZ026>034-041>043-270800-
NORTH


CITY           SKY/WX    TMP DP  RH WIND       PRES   REMARKS
WATERTOWN      CLOUDY    41  38  89 CALM      29.73S
FORT DRUM      NOT AVBL
MASSENA        CLOUDY    41  35  79 NW6       29.73S
SARANAC LAKE   CLOUDY    38  37  97 CALM      29.65S
PLATTSBURGH    CLOUDY    43  39  86 NW6       29.67S
$$

NYZ001>004-010>016-019>021-270800-
WEST


CITY           SKY/WX    TMP DP  RH WIND       PRES   REMARKS
NIAGARA FALLS  LGT RAIN  43  34  70 NW7       29.78F
BUFFALO        CLOUDY    42  34  73 SW6       29.78F
DUNKIRK        CLOUDY    42  34  73 SW3       29.81F
JAMESTOWN      CLOUDY    39  28  65 W5        29.78F
WELLSVILLE     CLOUDY    37  29  72 W9        29.75F WCI  30
ROCHESTER      CLOUDY    44  33  65 NW7       29.75F
PENN YAN       CLOUDY    43  35  73 W7        29.74F
$$

             KEY
       WCI = WIND CHILL INDEX
       VSB = VISIBILITY
       HX  = HEAT INDEX
$$


USA.gov is the U.S. government's official web portal to all federal, state and local government web resources and services.